Simultaneous Nadir Overpasses (SNOs) Predictions

Prediction of SNOs between GOES-17 and NOAA-20 Satellite Orbit:

Table of predicted SNOs for the next 14.0 days since TLE Epoch: 10/5/2024
Index Date Time (GOES-17) GOES-17 Lat,Lon NOAA-20 Lat,Lon Distance(km) Time Diff (sec)
1 10/05/2024 20:38:10 0.01,-104.71 -0.92,-108.80 466.17 80
2 10/06/2024 20:22:06 -0.00,-104.71 0.09,-104.27 49.98 80
3 10/09/2024 08:25:12 0.01,-104.70 0.09,-105.02 36.73 80
4 10/10/2024 08:03:49 0.00,-104.70 -0.94,-100.50 478.48 80
5 10/11/2024 20:25:46 -0.00,-104.70 -0.24,-105.81 127.11 80
6 10/12/2024 20:09:42 0.00,-104.69 0.75,-101.28 388.63 80
7 10/14/2024 08:31:31 0.00,-104.69 0.41,-106.56 212.70 80
8 10/15/2024 08:10:06 0.00,-104.69 -0.59,-102.03 303.02 80
9 10/16/2024 20:32:03 -0.02,-104.68 -0.60,-107.34 302.19 80
10 10/17/2024 20:15:58 -0.03,-104.68 0.41,-102.81 214.04 80
